This is the latest recevied weather packets stored in our database for station/object N1YZ. If no packets are shown the sender has not sent any weather packets the latest 10 day(s).
| Time | Temp. | Humidity | Pressure | Rain* | Wind** | Luminosity | Snow |
|---|---|---|---|---|---|---|---|
| 1777657071 | 16.67° C | 74% | 1034.5 hPa | 0 mm | - | 200 W/m² | - |
| 1777656768 | 16.11° C | 80% | 1034.6 hPa | 0 mm | - | 176 W/m² | - |
| 1777656464 | 16.11° C | 81% | 1034.6 hPa | 0 mm | - | 139 W/m² | - |
| 1777656159 | 16.11° C | 81% | 1034.7 hPa | 0 mm | - | 123 W/m² | - |
| 1777655854 | 16.11° C | 81% | 1034.7 hPa | 0 mm | - | 117 W/m² | - |
| 1777655552 | 15.56° C | 81% | 1035 hPa | 0 mm | - | 92 W/m² | - |
| 1777655249 | 16.11° C | 83% | 1035.1 hPa | 0 mm | - | 89 W/m² | - |
| 1777654946 | 15.56° C | 84% | 1035.2 hPa | 0 mm | - | 100 W/m² | - |
| 1777654643 | 15.56° C | 83% | 1035 hPa | 0 mm | - | 106 W/m² | - |
| 1777654341 | 15.56° C | 84% | 1035 hPa | 0 mm | - | 106 W/m² | - |
| 1777654038 | 15.56° C | 83% | 1034.8 hPa | 0 mm | - | 102 W/m² | - |
| 1777653735 | 15.56° C | 80% | 1035.1 hPa | 0 mm | - | 109 W/m² | - |
| 1777653431 | 15° C | 83% | 1035 hPa | 0 mm | - | 101 W/m² | - |
| 1777653128 | 15° C | 83% | 1034.7 hPa | 0 mm | - | 95 W/m² | - |
| 1777652824 | 15° C | 84% | 1035.1 hPa | 0 mm | - | 89 W/m² | - |
| 1777652521 | 15° C | 84% | 1034.7 hPa | 0 mm | - | 94 W/m² | - |
| 1777652218 | 14.44° C | 84% | 1035 hPa | 0 mm | - | 82 W/m² | - |
| 1777651915 | 14.44° C | 82% | 1035.2 hPa | 0 mm | - | 65 W/m² | - |
| 1777651611 | 14.44° C | 84% | 1035 hPa | 0 mm | - | 61 W/m² | - |
| 1777651309 | 14.44° C | 83% | 1035 hPa | 0 mm | - | 59 W/m² | - |
| 1777651006 | 14.44° C | 82% | 1035.1 hPa | 0 mm | - | 52 W/m² | - |
| 1777650703 | 15° C | 82% | 1034.7 hPa | 0 mm | - | 58 W/m² | - |
| 1777650400 | 15° C | 87% | 1034.7 hPa | 0 mm | - | 77 W/m² | - |
| 1777650097 | 14.44° C | 88% | 1034.8 hPa | 0 mm | - | 78 W/m² | - |
| 1777649794 | 13.89° C | 87% | 1034.8 hPa | 0 mm | - | 89 W/m² | - |
* Rain latest hour (hover to see other rain measurements)
** Current wind speed in m/s (hover to see current wind gust speed)